FLOCK 1C 5

导读 | 星芒AI

FLOCK 1C 5 是由 Planet Labs 运营的 Dove 系列小型地球观测卫星之一,属于 Flock 1C 卫星群。该卫星主要用于高分辨率光学成像,支持全球范围内的每日重访能力,广泛应用于环境监测、农业、灾害评估等领域。Flock 1C 5 于 2016 年发射,运行在低地球轨道,具备快速数据获取与传输能力,为用户提供频繁更新的地表图像。

基本信息
目录编号:
40038
目录名称:
FLOCK 1C 5
国际标识:
2014-033AE
轨道中心:
EARTH
卫星名称:
FLOCK 1C 5
卫星全名:
--
卫星状态:
已陨落 最后检测时间 2025-03-14
发射日期:
2014-06-19 UTC
国别 :
美国 (US)
星等 :
--
轨道信息
数据来源 国际轨道数据
星历时间: 2025-03-11T20:50:48+0800
轨道信息已过期279天
半长轴: 6570.553km
偏心率: 0.0007724
轨道倾角: 98.041°
近地点辐角 205.589°
升交点赤经 89.273°
平近点角 154.502°
近地点: 187.342km
远地点: 197.494km
周期: 88.341分钟
每日圈数: 16.300464
详细信息
使用方式:
暂无